Content
SEND FEEDBACK

Daily
Averages
Monthly
Summary
United States of America

CAPULIN VOLCANO NATIONAL MONUMENT, NEW MEXICO


Home > North America > United States > New Mexico
Elevation: 7290 feet     Latitude: 36 47N     Longitude: 103 58W

WEATHER
 
SELECT A DAY
Number of Records: 151,960;   Date Range: 8/27/98 - 8/12/14
 
SHARE

PRINT THIS DATA

[ ← Previous Day ]
WEATHER ALMANAC - JANUARY 3, 2013
[ Next Day → ]
[ °C ]   °F
Weather ElementAverageHighLow
Temperature8.6 °F21.9 °F (1:53 pm)-0.9 °F (3:53 am)
Dewpoint1.5 °F9 °F (2:53 pm)-5.1 °F (3:53 am)
Humidity74 %84 % (1:53 am)55 % (12:53 pm)
Barometer30.50 in30.59 in (8:53 am)30.41 in (2:53 pm)
Wind Speed5.4 mph8.1 mph (3:53 am)
Weather ElementAverage
Visibility10 mi
Wind DirectionESE (108.3 °)

Weather ElementTotal
Precipitation---
Heating Degree Days54.5 (Base 65)
Averaged from 23 records on January 3, 2013
WEATHER CONDITIONS BREAKOUT
WIND DIRECTION BREAKOUT
WEATHER BY HOUR - JANUARY 3, 2013
[ °C ]   °F
Local TimeTemperatureDewpointHumidityBarometerVisibilityWind DirectionWind SpeedGust SpeedPrecipitationEventsConditions
1:53 AM3.9 °F0.0 °F84 %30.44 in10.0 miNE (40°)6.9 mphClear
2:53 AM3.0 °F-0.9 °F84 %30.47 in10.0 miENE (70°)4.6 mphClear
3:53 AM-0.9 °F-5.1 °F83 %30.51 in10.0 miENE (70°)8.1 mphClear
4:53 AM0.0 °F-4.0 °F83 %30.52 in10.0 miNE (50°)4.6 mphClear
5:53 AM-0.9 °F-5.1 °F83 %30.53 in10.0 miNE (40°)6.9 mphClear
6:53 AM0.0 °F-4.0 °F83 %30.55 in10.0 miENE (60°)6.9 mphClear
7:53 AM0.0 °F-5.1 °F79 %30.58 in10.0 miNE (50°)6.9 mphClear
8:53 AM3.0 °F-2.9 °F76 %30.59 in10.0 miENE (60°)5.8 mphClear
9:53 AM9.0 °F1.9 °F73 %30.58 in10.0 miENE (60°)6.9 mphClear
10:53 AM16.0 °F6.1 °F65 %30.54 in10.0 miENE (60°)3.5 mphClear
11:53 AM19.0 °F8.1 °F62 %30.49 in10.0 miEast (80°)3.5 mphClear
12:53 PM21.0 °F7.0 °F55 %30.44 in10.0 miSouth (170°)5.8 mphClear
1:53 PM21.9 °F8.1 °F55 %30.42 in10.0 miSouth (180°)3.5 mphClear
2:53 PM21.9 °F9.0 °F58 %30.41 in10.0 miCalmClear
3:53 PM21.9 °F9.0 °F58 %30.43 in10.0 miWSW (240°)3.5 mphClear
4:53 PM19.0 °F8.1 °F62 %30.45 in10.0 miWest (260°)3.5 mphClear
5:53 PM12.0 °F5.0 °F73 %30.50 in10.0 miNNW (340°)6.9 mphClear
6:53 PM10.0 °F3.9 °F76 %30.51 in10.0 miNorth (350°)6.9 mphClear
7:53 PM7.0 °F1.9 °F80 %30.52 in10.0 miENE (70°)6.9 mphClear
8:53 PM5.0 °F1.0 °F84 %30.51 in10.0 miNE (50°)5.8 mphClear
9:53 PM3.0 °F-2.0 °F80 %30.51 in10.0 miENE (60°)6.9 mphClear
10:53 PM1.9 °F-2.0 °F83 %30.48 in10.0 miEast (80°)4.6 mphClear
11:53 PM0.0 °F-4.0 °F83 %30.45 in10.0 miNE (50°)5.8 mphClear
Hourly data recorded from KRTN, located miles away from Capulin Volcano National Monument, New Mexico







STORIES FROM OUR PARTNERS